STARLINK-34075, 63917

Orbit data source: Space-Track

STARLINK-34075, 63917 is a payload satellite owned by SpaceX/Seattle (US) in LEO that was launched on Sat, 10 May 2025 UTC via an FALCON 9 launch vehicle from the Air Force Eastern Test Range (AFETR). Payload-class satellites include a variety of spacecraft equipped with specific instruments for various scientific and technological missions. These include communications satellites like Starlink; space stations such as the ISS; scientific satellites like the Hubble; Earth observation satellites from companies like Planet Labs, Umbra, and HawkEye 360; GPS; miniature CubeSats for education and research; and military/defense satellites.

Loading next visibility...
Identifier
63917, 2025-095AD
Orbit
LEO
Country
Flag of USUS
Related business
Manufacturer
SpaceX/Seattle
Mission
Operational Commercial Communications
Bus & Motor
STARLINK V2MO, Unknown motor
Mass
575 kg wet, ~530 kg dry
Launch date (UTC)
2025-05-10 (1 year ago)
Launch vehicle
FALCON 9
Launch site
Air Force Eastern Test Range (AFETR)
Object type
Payload
Rocket body
Debris
Shape & HBR
Box + 2 Pan, 17.7 m
Radar Cross Section
36.964 m², Large (>1 m²)

Expand to show TLE details & history
Last TLE update: 11 hours ago

TLE from 11 hours ago
0 STARLINK-34075
1 63917U 25095AD  26171.43406495  .00018066  00000-0  66403-3 0  9992
2 63917  43.0045 315.7594 0002156 282.0677  77.9933 15.27598787 63493
Epoch: 2026-06-20T10:25Z
TLE epoch observation values (Epoch: 2026-06-20T10:25:03.211Z)
Latitude
-0.00003°
Longitude
-109.15276°
Altitude
482.461 km
Speed
7.626 km/s
True Right ascension
21h 03m 02s
True Declination
0° 00' 00"
Sunlit
Object was in full shadow at epoch
Visualization orbit readout
Latitude
Unknown
Longitude
Unknown
Altitude
Unknown
Speed
Unknown
Apparent Right ascension
Unknown
Apparent Declination
Unknown
Sunlit
N/A
Visualization observer readout
Local Sidereal Time
08:33:15
Azimuth
Unknown
Elevation
Unknown
Doppler factor
Unknown
Orbital elements
Apogee altitude
486.417 km
Perigee altitude
483.458 km
Semi-major axis
6,863.074 km
Eccentricity
0.00022
Inclination
43.0045°
RAAN
315.7594°
Arg. of periapsis
282.0677°
True anomaly
78.01747°
Mean anomaly
77.9933°
Eccentric anomaly
78.00538°
Mean motion
3.81738 °/min
Orbital period
94.31 mins
BSTAR
0.00066403
Loading maneuver chart data...
Computing Atmospheric mass density...
Loading historical data...
Loading historical data...
Loading historical data...
Loading historical data...
Loading historical data...
Loading historical data...
Loading historical data...

Documentation

Showing up to 5 results
|